JES3169 SABE-SAZY

Flight info

Callsign JES3169
Flight time N/A
Altitude 36000
Route PAL9 TORUL UT654 BIXIM UT669 NEU NEU1R
Aircraft A20N/M-SDE2E3FGHIRWXY/LB1

Departure

Time 2026-05-05 00:03
Airport Aeroparque Jorge Newbery (SABE)

Arrival

Time N/A
Airport Aviador C. Campos Airport (SAZY)
Time Latitude Longitude Altitude Speed Heading
2026-05-05 00:03 -34.47270 -58.35703 8743 ft 266 kts 243°
2026-05-05 00:03 -34.48448 -58.37409 9667 ft 267 kts 216°
2026-05-05 00:04 -34.50082 -58.38479 10395 ft 276 kts 208°
2026-05-05 00:04 -34.51772 -58.39747 10672 ft 296 kts 220°
2026-05-05 00:04 -34.53249 -58.41595 10967 ft 313 kts 233°
2026-05-05 00:04 -34.54440 -58.43834 11720 ft 316 kts 240°
2026-05-05 00:05 -34.55455 -58.46214 12578 ft 317 kts 244°
2026-05-05 00:05 -34.56393 -58.48642 13427 ft 319 kts 245°
2026-05-05 00:05 -34.57315 -58.51105 14186 ft 322 kts 245°
2026-05-05 00:05 -34.58247 -58.53593 14855 ft 325 kts 245°
2026-05-05 00:06 -34.59263 -58.55782 15508 ft 329 kts 233°
2026-05-05 00:06 -34.60965 -58.57687 16144 ft 340 kts 217°
2026-05-05 00:06 -34.63137 -58.58922 16767 ft 353 kts 201°
2026-05-05 00:06 -34.65621 -58.59344 17377 ft 368 kts 185°
2026-05-05 00:07 -34.68196 -58.58816 17961 ft 385 kts 169°
2026-05-05 00:07 -34.70749 -58.57863 18507 ft 390 kts 169°
2026-05-05 00:07 -34.73350 -58.56878 19087 ft 393 kts 169°
2026-05-05 00:07 -34.75985 -58.55898 19592 ft 395 kts 172°
2026-05-05 00:08 -34.78679 -58.55469 20128 ft 385 kts 188°
2026-05-05 00:08 -34.81265 -58.55906 20653 ft 376 kts 202°
2026-05-05 00:08 -34.83658 -58.57139 21194 ft 368 kts 217°
2026-05-05 00:08 -34.85644 -58.59006 21719 ft 363 kts 230°
2026-05-05 00:09 -34.87237 -58.61402 22280 ft 361 kts 237°
2026-05-05 00:09 -34.88712 -58.63851 22841 ft 364 kts 237°
2026-05-05 00:09 -34.90221 -58.66346 23411 ft 367 kts 237°
2026-05-05 00:09 -34.91743 -58.68862 23878 ft 370 kts 237°
2026-05-05 00:10 -34.93278 -58.71397 24342 ft 372 kts 237°
2026-05-05 00:10 -34.94818 -58.73942 24798 ft 374 kts 237°
2026-05-05 00:10 -34.96370 -58.76510 25236 ft 377 kts 237°
2026-05-05 00:10 -34.97912 -58.79062 25675 ft 379 kts 237°
2026-05-05 00:11 -34.99479 -58.81658 26102 ft 381 kts 237°
2026-05-05 00:11 -35.01060 -58.84279 26515 ft 384 kts 237°
2026-05-05 00:11 -35.02652 -58.86919 26928 ft 386 kts 237°
2026-05-05 00:11 -35.04250 -58.89572 27327 ft 388 kts 237°
2026-05-05 00:12 -35.05833 -58.92202 27708 ft 390 kts 237°
2026-05-05 00:12 -35.07453 -58.94896 28087 ft 393 kts 237°
2026-05-05 00:12 -35.09074 -58.97593 28453 ft 395 kts 237°
2026-05-05 00:12 -35.10705 -59.00307 28819 ft 397 kts 237°
2026-05-05 00:13 -35.12344 -59.03038 29149 ft 399 kts 237°
2026-05-05 00:13 -35.13989 -59.05780 29493 ft 401 kts 237°
2026-05-05 00:13 -35.15626 -59.08513 29805 ft 403 kts 237°
2026-05-05 00:13 -35.17288 -59.11287 30122 ft 405 kts 237°
2026-05-05 00:14 -35.18958 -59.14078 30427 ft 407 kts 238°
2026-05-05 00:14 -35.20069 -59.15935 30634 ft 408 kts 238°
2026-05-05 00:14 -35.22265 -59.19688 31047 ft 409 kts 238°
2026-05-05 00:14 -35.23372 -59.21619 31294 ft 408 kts 239°
2026-05-05 00:15 -35.24979 -59.24434 31701 ft 407 kts 239°
2026-05-05 00:15 -35.26606 -59.27281 32106 ft 405 kts 239°
2026-05-05 00:15 -35.28219 -59.30099 32496 ft 404 kts 239°
2026-05-05 00:15 -35.29834 -59.32918 32888 ft 402 kts 239°
2026-05-05 00:16 -35.31419 -59.35683 33274 ft 401 kts 239°
2026-05-05 00:16 -35.33018 -59.38473 33635 ft 399 kts 239°
2026-05-05 00:16 -35.34618 -59.41269 33972 ft 398 kts 239°
2026-05-05 00:16 -35.36204 -59.44041 34282 ft 397 kts 239°
2026-05-05 00:17 -35.37801 -59.46805 34579 ft 396 kts 238°
2026-05-05 00:17 -35.39410 -59.49544 34857 ft 395 kts 238°
2026-05-05 00:17 -35.41003 -59.52248 35124 ft 394 kts 238°
2026-05-05 00:17 -35.42609 -59.54979 35394 ft 393 kts 238°
2026-05-05 00:18 -35.44207 -59.57704 35657 ft 392 kts 238°
2026-05-05 00:18 -35.45781 -59.60394 35883 ft 391 kts 238°
2026-05-05 00:18 -35.47367 -59.63107 35911 ft 390 kts 238°
2026-05-05 00:19 -35.50525 -59.68521 35911 ft 389 kts 239°
2026-05-05 00:19 -35.53663 -59.73909 35911 ft 390 kts 239°
2026-05-05 00:20 -35.56820 -59.79336 35912 ft 389 kts 239°
2026-05-05 00:20 -35.59955 -59.84733 35909 ft 390 kts 239°
2026-05-05 00:21 -35.63114 -59.90182 35909 ft 390 kts 239°
2026-05-05 00:21 -35.66255 -59.95606 35917 ft 391 kts 239°
2026-05-05 00:22 -35.69407 -60.01059 35918 ft 391 kts 239°
2026-05-05 00:22 -35.72546 -60.06496 35919 ft 391 kts 239°
2026-05-05 00:23 -35.75700 -60.11970 35915 ft 391 kts 239°
2026-05-05 00:23 -35.78836 -60.17420 35918 ft 391 kts 239°
2026-05-05 00:24 -35.81990 -60.22909 35915 ft 391 kts 239°
2026-05-05 00:24 -35.85117 -60.28362 35917 ft 391 kts 239°
2026-05-05 00:25 -35.88261 -60.33852 35917 ft 391 kts 239°
2026-05-05 00:25 -35.91382 -60.39310 35913 ft 391 kts 239°
2026-05-05 00:26 -35.94516 -60.44800 35915 ft 391 kts 239°
2026-05-05 00:26 -35.97636 -60.50275 35921 ft 391 kts 239°
2026-05-05 00:27 -36.00772 -60.55785 35910 ft 391 kts 239°
2026-05-05 00:27 -36.03885 -60.61264 35917 ft 391 kts 239°
2026-05-05 00:28 -36.07007 -60.66770 35911 ft 391 kts 239°
2026-05-05 00:28 -36.10132 -60.72287 35921 ft 391 kts 239°
2026-05-05 00:29 -36.13237 -60.77776 35919 ft 391 kts 240°
2026-05-05 00:29 -36.16325 -60.83284 35913 ft 390 kts 240°
2026-05-05 00:30 -36.19420 -60.88819 35914 ft 390 kts 240°
2026-05-05 00:30 -36.22493 -60.94320 35919 ft 390 kts 240°
2026-05-05 00:31 -36.25586 -60.99863 35919 ft 390 kts 240°
2026-05-05 00:31 -36.28668 -61.05394 35917 ft 389 kts 240°
2026-05-05 00:32 -36.31736 -61.10911 35915 ft 389 kts 240°
2026-05-05 00:32 -36.34802 -61.16432 35916 ft 389 kts 240°
2026-05-05 00:33 -36.37863 -61.21952 35919 ft 389 kts 240°
2026-05-05 00:33 -36.40926 -61.27496 35918 ft 389 kts 240°
2026-05-05 00:34 -36.43990 -61.33042 35917 ft 389 kts 240°
2026-05-05 00:34 -36.47033 -61.38560 35918 ft 389 kts 240°
2026-05-05 00:35 -36.50092 -61.44116 35916 ft 388 kts 240°
2026-05-05 00:35 -36.53136 -61.49655 35916 ft 388 kts 240°
2026-05-05 00:36 -36.56169 -61.55183 35916 ft 388 kts 240°
2026-05-05 00:36 -36.59215 -61.60743 35914 ft 388 kts 240°
2026-05-05 00:37 -36.62260 -61.66313 35916 ft 388 kts 240°
2026-05-05 00:37 -36.65280 -61.71843 35915 ft 388 kts 240°
2026-05-05 00:38 -36.68299 -61.77382 35914 ft 387 kts 240°
2026-05-05 00:38 -36.71331 -61.82952 35916 ft 387 kts 240°
2026-05-05 00:39 -36.74361 -61.88529 35911 ft 387 kts 240°
2026-05-05 00:39 -36.77363 -61.94065 35915 ft 387 kts 241°
2026-05-05 00:40 -36.80381 -61.99638 35916 ft 387 kts 241°
2026-05-05 00:40 -36.83382 -62.05188 35914 ft 387 kts 241°
2026-05-05 00:41 -36.86396 -62.10772 35913 ft 387 kts 241°
2026-05-05 00:41 -36.89386 -62.16320 35914 ft 386 kts 241°
2026-05-05 00:42 -36.92389 -62.21902 35909 ft 386 kts 241°
2026-05-05 00:42 -36.95391 -62.27492 35911 ft 386 kts 241°
2026-05-05 00:43 -36.98366 -62.33040 35910 ft 386 kts 241°
2026-05-05 00:43 -37.01357 -62.38629 35913 ft 385 kts 241°
2026-05-05 00:44 -37.04332 -62.44196 35907 ft 385 kts 241°
2026-05-05 00:44 -37.07312 -62.49781 35909 ft 385 kts 241°
2026-05-05 00:45 -37.10271 -62.55337 35909 ft 385 kts 241°
2026-05-05 00:45 -37.13233 -62.60906 35913 ft 384 kts 241°
2026-05-05 00:46 -37.16207 -62.66509 35912 ft 384 kts 242°
2026-05-05 00:46 -37.19148 -62.72057 35912 ft 384 kts 242°
2026-05-05 00:47 -37.22109 -62.77655 35909 ft 384 kts 242°
2026-05-05 00:47 -37.25038 -62.83199 35903 ft 383 kts 242°
2026-05-05 00:48 -37.27995 -62.88806 35904 ft 383 kts 242°
2026-05-05 00:48 -37.30919 -62.94359 35906 ft 383 kts 242°
2026-05-05 00:49 -37.33856 -62.99970 35903 ft 382 kts 243°
2026-05-05 00:49 -37.36318 -63.05817 35905 ft 378 kts 249°
2026-05-05 00:50 -37.38577 -63.11801 35910 ft 378 kts 249°
2026-05-05 00:50 -37.40838 -63.17747 35912 ft 378 kts 249°
2026-05-05 00:51 -37.43104 -63.23734 35911 ft 378 kts 249°
2026-05-05 00:51 -37.45352 -63.29695 35911 ft 378 kts 249°
2026-05-05 00:52 -37.47608 -63.35694 35907 ft 378 kts 249°
2026-05-05 00:52 -37.49844 -63.41647 35906 ft 378 kts 249°
2026-05-05 00:53 -37.52088 -63.47635 35910 ft 378 kts 249°
2026-05-05 00:53 -37.54320 -63.53604 35911 ft 377 kts 249°
2026-05-05 00:54 -37.56559 -63.59600 35909 ft 377 kts 249°
2026-05-05 00:54 -37.58795 -63.65602 35909 ft 377 kts 249°
2026-05-05 00:55 -37.61011 -63.71561 35911 ft 377 kts 249°
2026-05-05 00:55 -37.63239 -63.77567 35909 ft 377 kts 249°
2026-05-05 00:56 -37.65452 -63.83541 35911 ft 377 kts 249°
2026-05-05 00:56 -37.67677 -63.89558 35900 ft 377 kts 249°
2026-05-05 00:57 -37.69879 -63.95527 35918 ft 377 kts 249°
2026-05-05 00:57 -37.72093 -64.01539 35910 ft 377 kts 249°
2026-05-05 00:58 -37.74291 -64.07521 35913 ft 377 kts 249°
2026-05-05 00:58 -37.76504 -64.13556 35912 ft 376 kts 249°
2026-05-05 00:59 -37.78694 -64.19539 35921 ft 376 kts 249°
2026-05-05 00:59 -37.80523 -64.24546 35921 ft 376 kts 249°
2026-05-05 01:00 -37.83076 -64.31545 35926 ft 376 kts 249°
2026-05-05 01:00 -37.85254 -64.37531 35927 ft 376 kts 249°
2026-05-05 01:01 -37.87072 -64.42538 35922 ft 375 kts 249°
2026-05-05 01:01 -37.89242 -64.48523 35927 ft 375 kts 249°
2026-05-05 01:02 -37.91409 -64.54513 35928 ft 374 kts 250°
2026-05-05 01:02 -37.93574 -64.60508 35926 ft 374 kts 249°
2026-05-05 01:03 -37.95734 -64.66500 35928 ft 373 kts 250°
2026-05-05 01:03 -37.97891 -64.72499 35925 ft 372 kts 250°
2026-05-05 01:04 -38.00025 -64.78442 35922 ft 371 kts 250°
2026-05-05 01:04 -38.03224 -64.87379 35921 ft 372 kts 250°
2026-05-05 01:05 -38.05353 -64.93341 35924 ft 371 kts 250°
2026-05-05 01:05 -38.07487 -64.99327 35922 ft 371 kts 250°
2026-05-05 01:06 -38.09614 -65.05305 35917 ft 371 kts 250°
2026-05-05 01:06 -38.11729 -65.11264 35918 ft 371 kts 250°
2026-05-05 01:07 -38.13853 -65.17259 35920 ft 371 kts 250°
2026-05-05 01:07 -38.15964 -65.23229 35918 ft 371 kts 250°
2026-05-05 01:08 -38.18075 -65.29211 35914 ft 372 kts 250°
2026-05-05 01:08 -38.20191 -65.35219 35918 ft 372 kts 250°
2026-05-05 01:09 -38.22303 -65.41229 35918 ft 372 kts 250°
2026-05-05 01:09 -38.24407 -65.47227 35918 ft 372 kts 250°
2026-05-05 01:10 -38.26503 -65.53215 35924 ft 372 kts 250°
2026-05-05 01:10 -38.28597 -65.59210 35924 ft 372 kts 250°
2026-05-05 01:11 -38.30700 -65.65242 35925 ft 372 kts 250°
2026-05-05 01:11 -38.32796 -65.71267 35921 ft 372 kts 250°
2026-05-05 01:12 -38.34882 -65.77275 35919 ft 371 kts 250°
2026-05-05 01:12 -38.36969 -65.83298 35925 ft 371 kts 250°
2026-05-05 01:13 -38.39049 -65.89310 35912 ft 371 kts 250°
2026-05-05 01:13 -38.41136 -65.95347 35910 ft 371 kts 250°
2026-05-05 01:14 -38.43210 -66.01328 35917 ft 371 kts 250°
2026-05-05 01:14 -38.45305 -66.07354 35920 ft 371 kts 250°
2026-05-05 01:15 -38.47384 -66.13350 35918 ft 371 kts 250°
2026-05-05 01:15 -38.49474 -66.19391 35920 ft 371 kts 251°
2026-05-05 01:16 -38.51561 -66.25437 35921 ft 371 kts 251°
2026-05-05 01:16 -38.53634 -66.31454 35919 ft 371 kts 251°
2026-05-05 01:17 -38.55709 -66.37491 35919 ft 372 kts 251°
2026-05-05 01:17 -38.57788 -66.43548 35919 ft 372 kts 251°
2026-05-05 01:18 -38.59855 -66.49586 35920 ft 372 kts 251°
2026-05-05 01:18 -38.61932 -66.55657 35922 ft 372 kts 251°
2026-05-05 01:19 -38.64010 -66.61747 35923 ft 373 kts 251°
2026-05-05 01:19 -38.66077 -66.67815 35923 ft 373 kts 251°
2026-05-05 01:20 -38.68136 -66.73876 35923 ft 373 kts 251°
2026-05-05 01:20 -38.70204 -66.79973 35928 ft 373 kts 251°
2026-05-05 01:21 -38.72274 -66.86091 35933 ft 373 kts 251°
2026-05-05 01:21 -38.74326 -66.92167 35933 ft 373 kts 251°
2026-05-05 01:22 -38.76371 -66.98235 35918 ft 370 kts 251°
2026-05-05 01:22 -38.78402 -67.04277 35922 ft 370 kts 251°
2026-05-05 01:23 -38.80437 -67.10342 35922 ft 369 kts 251°
2026-05-05 01:23 -38.82455 -67.16369 35922 ft 368 kts 251°
2026-05-05 01:24 -38.84465 -67.22386 35922 ft 368 kts 251°
2026-05-05 01:24 -38.86485 -67.28443 35922 ft 368 kts 251°
2026-05-05 01:25 -38.88485 -67.34455 35922 ft 368 kts 251°
2026-05-05 01:25 -38.90496 -67.40511 35922 ft 367 kts 251°
2026-05-05 01:26 -38.92440 -67.46577 35921 ft 365 kts 254°
2026-05-05 01:26 -38.93703 -67.52845 35916 ft 362 kts 262°
2026-05-05 01:27 -38.94167 -67.59244 35918 ft 361 kts 269°
2026-05-05 01:27 -38.94275 -67.65710 35920 ft 361 kts 268°
2026-05-05 01:28 -38.94395 -67.72174 35911 ft 361 kts 269°
2026-05-05 01:28 -38.94503 -67.78596 35903 ft 361 kts 269°
2026-05-05 01:29 -38.94606 -67.85075 35891 ft 361 kts 269°
2026-05-05 01:29 -38.94705 -67.91521 35881 ft 361 kts 269°
2026-05-05 01:30 -38.94800 -67.97935 35872 ft 360 kts 269°
2026-05-05 01:30 -38.94891 -68.04347 35866 ft 360 kts 269°
2026-05-05 01:31 -38.95069 -68.10780 35865 ft 359 kts 264°
2026-05-05 01:31 -38.96062 -68.17042 35862 ft 361 kts 256°
2026-05-05 01:32 -38.97998 -68.23040 35862 ft 365 kts 248°
2026-05-05 01:32 -39.00288 -68.28856 35865 ft 364 kts 248°
2026-05-05 01:33 -39.02556 -68.34676 35871 ft 363 kts 248°
2026-05-05 01:33 -39.04809 -68.40466 35879 ft 363 kts 249°
2026-05-05 01:34 -39.07061 -68.46258 35886 ft 363 kts 249°
2026-05-05 01:34 -39.09316 -68.52071 35894 ft 363 kts 249°
2026-05-05 01:35 -39.11565 -68.57879 35899 ft 363 kts 249°
2026-05-05 01:35 -39.13821 -68.63716 35898 ft 362 kts 249°
2026-05-05 01:36 -39.16056 -68.69510 35900 ft 362 kts 249°
2026-05-05 01:36 -39.18303 -68.75345 35899 ft 363 kts 249°
2026-05-05 01:37 -39.20538 -68.81168 35900 ft 363 kts 249°
2026-05-05 01:37 -39.22780 -68.87016 35903 ft 363 kts 249°
2026-05-05 01:38 -39.25008 -68.92836 35904 ft 363 kts 249°